This is the latest recevied weather packets stored in our database for station/object JS1SZZ-13. If no packets are shown the sender has not sent any weather packets the latest 10 day(s).
| Time | Temp. | Humidity | Pressure | Rain* | Wind** | Luminosity | Snow |
|---|---|---|---|---|---|---|---|
| 1787617658 | 30° C | 61% | 1012.4 hPa | 0 mm | - | - | - |
| 1787616759 | 30° C | 63% | 1012.4 hPa | 0 mm | - | - | - |
| 1787615859 | 29.44° C | 60% | 1012.6 hPa | 0 mm | - | - | - |
| 1787614958 | 28.89° C | 64% | 1012.6 hPa | 0 mm | - | - | - |
| 1787614060 | 28.33° C | 67% | 1012.8 hPa | 0 mm | - | - | - |
| 1787613159 | 27.22° C | 67% | 1012.8 hPa | 0 mm | - | - | - |
| 1787612258 | 26.67° C | 73% | 1013 hPa | 0 mm | - | - | - |
| 1787611360 | 26.67° C | 71% | 1013.1 hPa | 0 mm | - | - | - |
| 1787610989 | 26.67° C | 73% | 1013.3 hPa | 0 mm | - | - | - |
| 1787610088 | 25.56° C | 75% | 1013.7 hPa | 0 mm | - | - | - |
| 1787609188 | 24.44° C | 79% | 1013.3 hPa | 0 mm | - | - | - |
| 1787608287 | 24.44° C | 86% | 1013.4 hPa | 0 mm | - | - | - |
| 1787607389 | 23.33° C | 90% | 1013.4 hPa | 0 mm | - | - | - |
| 1787606488 | 22.78° C | 93% | 1013.4 hPa | 0 mm | - | - | - |
| 1787605587 | 21.67° C | 92% | 1013.3 hPa | 0 mm | - | - | - |
| 1787604689 | 20.56° C | 91% | 1013.4 hPa | 0 mm | - | - | - |
| 1787603788 | 20.56° C | 92% | 1013.3 hPa | 0 mm | - | - | - |
| 1787602888 | 20° C | 92% | 1013.2 hPa | 0 mm | - | - | - |
| 1787601987 | 20° C | 92% | 1013.1 hPa | 0 mm | - | - | - |
| 1787601088 | 20.56° C | 92% | 1012.9 hPa | 0 mm | - | - | - |
| 1787600189 | 20.56° C | 91% | 1013.1 hPa | 0 mm | - | - | - |
| 1787599288 | 20.56° C | 91% | 1013.1 hPa | 0 mm | - | - | - |
| 1787598388 | 20.56° C | 92% | 1012.9 hPa | 0 mm | - | - | - |
| 1787597488 | 20.56° C | 92% | 1013 hPa | 0 mm | - | - | - |
| 1787596589 | 21.11° C | 92% | 1013.1 hPa | 0 mm | - | - | - |
* Rain latest hour (hover to see other rain measurements)
** Current wind speed in m/s (hover to see current wind gust speed)